| time (UTC) | temp F | wind direction | speed MPH | gust MPH | rain 1hr in | rain 24hr in | rain mn in | humidity % | barometer mb |
| 20260503221157 | 57 | 222 | 2.0 | 2.0 | 0.00 | 0.00 | 0.00 | 61 | 1007.2 |
| 20260503220654 | 57 | 322 | 3.0 | 6.0 | 0.00 | 0.00 | 0.00 | 62 | 1007.3 |
| 20260503220150 | 56 | 141 | 0.0 | 0.0 | 0.00 | 0.00 | 0.00 | 63 | 1007.3 |
| 20260503215647 | 56 | 56 | 3.0 | 7.0 | 0.00 | 0.00 | 0.00 | 63 | 1007.5 |
| 20260503215143 | 56 | 235 | 3.0 | 3.0 | 0.00 | 0.00 | 0.00 | 64 | 1007.4 |
| 20260503214642 | 56 | 170 | 1.0 | 2.0 | 0.00 | 0.00 | 0.00 | 64 | 1007.5 |
| 20260503214138 | 55 | 111 | 0.0 | 1.0 | 0.00 | 0.00 | 0.00 | 65 | 1007.5 |
| 20260503213632 | 55 | 212 | 0.0 | 1.0 | 0.00 | 0.00 | 0.00 | 65 | 1007.3 |
| 20260503213128 | 55 | 215 | 5.0 | 6.0 | 0.00 | 0.00 | 0.00 | 65 | 1007.6 |
| 20260503212626 | 55 | 214 | 4.0 | 8.0 | 0.00 | 0.00 | 0.00 | 65 | 1007.5 |
| 20260503212123 | 55 | 156 | 5.0 | 6.0 | 0.00 | 0.00 | 0.00 | 65 | 1007.4 |
| 20260503211621 | 55 | 231 | 4.0 | 6.0 | 0.00 | 0.00 | 0.00 | 66 | 1007.5 |
| 20260503211115 | 55 | 99 | 3.0 | 3.0 | 0.00 | 0.00 | 0.00 | 66 | 1007.6 |
| 20260503210607 | 54 | 233 | 2.0 | 3.0 | 0.00 | 0.00 | 0.00 | 67 | 1007.6 |
| 20260503205559 | 54 | 219 | 2.0 | 2.0 | 0.00 | 0.00 | 0.00 | 67 | 1007.7 |
| 20260503205055 | 54 | 213 | 5.0 | 8.0 | 0.00 | 0.00 | 0.00 | 67 | 1007.8 |
| 20260503204553 | 54 | 232 | 4.0 | 7.0 | 0.00 | 0.00 | 0.00 | 67 | 1008.0 |
| 20260503204050 | 54 | 176 | 2.0 | 3.0 | 0.00 | 0.00 | 0.00 | 67 | 1008.1 |
| 20260503203547 | 53 | 160 | 2.0 | 2.0 | 0.00 | 0.00 | 0.00 | 68 | 1008.1 |
| 20260503203044 | 53 | 145 | 2.0 | 5.0 | 0.00 | 0.00 | 0.00 | 69 | 1008.2 |
| 20260503202542 | 53 | 170 | 2.0 | 2.0 | 0.00 | 0.00 | 0.00 | 69 | 1008.4 |
| 20260503202039 | 53 | 106 | 8.0 | 11.0 | 0.00 | 0.00 | 0.00 | 70 | 1008.4 |
| 20260503201537 | 53 | 82 | 3.0 | 6.0 | 0.00 | 0.00 | 0.00 | 71 | 1008.6 |
| 20260503201034 | 53 | 90 | 3.0 | 6.0 | 0.00 | 0.00 | 0.00 | 71 | 1008.7 |
| 20260503200530 | 53 | 241 | 7.0 | 10.0 | 0.00 | 0.00 | 0.00 | 69 | 1008.8 |
| 20260503200027 | 53 | 212 | 5.0 | 8.0 | 0.00 | 0.00 | 0.00 | 67 | 1008.6 |
| 20260503195524 | 54 | 253 | 7.0 | 11.0 | 0.00 | 0.00 | 0.00 | 65 | 1008.8 |
| 20260503195021 | 55 | 184 | 3.0 | 3.0 | 0.00 | 0.00 | 0.00 | 63 | 1009.0 |
| 20260503194519 | 55 | 231 | 5.0 | 7.0 | 0.00 | 0.00 | 0.00 | 61 | 1009.1 |
| 20260503194018 | 57 | 216 | 3.0 | 5.0 | 0.00 | 0.00 | 0.00 | 60 | 1008.9 |
| 20260503193515 | 57 | 260 | 4.0 | 5.0 | 0.00 | 0.00 | 0.00 | 58 | 1008.9 |
| 20260503193010 | 58 | 247 | 5.0 | 9.0 | 0.00 | 0.00 | 0.00 | 57 | 1009.1 |
| 20260503192507 | 58 | 247 | 3.0 | 3.0 | 0.00 | 0.00 | 0.00 | 56 | 1009.0 |
| 20260503192002 | 60 | 253 | 4.0 | 5.0 | 0.00 | 0.00 | 0.00 | 53 | 1008.8 |
| 20260503191500 | 59 | 239 | 13.0 | 18.0 | 0.00 | 0.00 | 0.00 | 53 | 1009.0 |
| 20260503190956 | 61 | 39 | 5.0 | 11.0 | 0.00 | 0.00 | 0.00 | 52 | 1009.0 |
| 20260503190453 | 61 | 255 | 8.0 | 11.0 | 0.00 | 0.00 | 0.00 | 50 | 1009.2 |
| 20260503185950 | 61 | 175 | 9.0 | 13.0 | 0.00 | 0.00 | 0.00 | 50 | 1009.0 |
| 20260503185447 | 62 | 144 | 5.0 | 6.0 | 0.00 | 0.00 | 0.00 | 50 | 1009.1 |
| 20260503184946 | 61 | 195 | 6.0 | 8.0 | 0.00 | 0.00 | 0.00 | 50 | 1009.1 |
| 20260503184443 | 62 | 240 | 8.0 | 13.0 | 0.00 | 0.00 | 0.00 | 49 | 1008.7 |
| 20260503183939 | 62 | 247 | 7.0 | 10.0 | 0.00 | 0.00 | 0.00 | 49 | 1009.1 |
| 20260503183436 | 61 | 71 | 5.0 | 8.0 | 0.00 | 0.00 | 0.00 | 50 | 1009.0 |
| 20260503182933 | 62 | 150 | 4.0 | 6.0 | 0.00 | 0.00 | 0.00 | 49 | 1009.5 |
| 20260503182432 | 61 | 163 | 8.0 | 13.0 | 0.00 | 0.00 | 0.00 | 49 | 1009.3 |
| 20260503181929 | 62 | 197 | 9.0 | 11.0 | 0.00 | 0.00 | 0.00 | 48 | 1009.3 |
| 20260503181426 | 63 | 176 | 1.0 | 2.0 | 0.00 | 0.00 | 0.00 | 48 | 1009.1 |
| 20260503180921 | 62 | 243 | 5.0 | 6.0 | 0.00 | 0.00 | 0.00 | 48 | 1009.2 |
| 20260503180420 | 62 | 93 | 4.0 | 7.0 | 0.00 | 0.00 | 0.00 | 49 | 1009.5 |
| 20260503175917 | 62 | 262 | 3.0 | 3.0 | 0.00 | 0.00 | 0.00 | 48 | 1009.3 |
| 20260503175415 | 62 | 235 | 6.0 | 10.0 | 0.00 | 0.00 | 0.00 | 48 | 1009.5 |
| 20260503174910 | 62 | 301 | 2.0 | 2.0 | 0.00 | 0.00 | 0.00 | 47 | 1009.4 |
| 20260503174408 | 62 | 113 | 4.0 | 6.0 | 0.00 | 0.00 | 0.00 | 47 | 1009.6 |
| 20260503173903 | 62 | 229 | 5.0 | 6.0 | 0.00 | 0.00 | 0.00 | 47 | 1009.6 |
| 20260503173359 | 61 | 238 | 5.0 | 8.0 | 0.00 | 0.00 | 0.00 | 49 | 1009.8 |
| 20260503172856 | 63 | 260 | 8.0 | 9.0 | 0.00 | 0.00 | 0.00 | 48 | 1009.6 |
| 20260503172354 | 61 | 134 | 5.0 | 8.0 | 0.00 | 0.00 | 0.00 | 50 | 1009.8 |
| 20260503171850 | 62 | 251 | 5.0 | 7.0 | 0.00 | 0.00 | 0.00 | 50 | 1009.6 |
| 20260503171347 | 61 | 205 | 3.0 | 3.0 | 0.00 | 0.00 | 0.00 | 51 | 1009.7 |
| 20260503170844 | 61 | 252 | 4.0 | 6.0 | 0.00 | 0.00 | 0.00 | 52 | 1009.7 |
| 20260503170340 | 61 | 152 | 3.0 | 5.0 | 0.00 | 0.00 | 0.00 | 51 | 1010.1 |
| 20260503150733 | 54 | 202 | 1.0 | 3.0 | 0.00 | 0.00 | 0.00 | 55 | 1010.7 |
| 20260503150229 | 54 | 129 | 5.0 | 7.0 | 0.00 | 0.00 | 0.00 | 54 | 1010.8 |
| 20260503140153 | 53 | 219 | 2.0 | 2.0 | 0.00 | 0.00 | 0.00 | 56 | 1011.2 |
| 20260503131123 | 51 | 150 | 1.0 | 2.0 | 0.00 | 0.00 | 0.00 | 60 | 1011.7 |
| 20260503130621 | 50 | 225 | 4.0 | 5.0 | 0.00 | 0.00 | 0.00 | 61 | 1011.6 |
| 20260503130118 | 49 | 194 | 0.0 | 1.0 | 0.00 | 0.00 | 0.00 | 65 | 1011.4 |
| 20260503110511 | 42 | 134 | 0.0 | 0.0 | 0.00 | 0.00 | 0.00 | 73 | 1011.6 |
| 20260503090402 | 39 | 161 | 0.0 | 0.0 | 0.00 | 0.00 | 0.00 | 70 | 1011.8 |
| 20260503081329 | 41 | 121 | 0.0 | 1.0 | 0.00 | 0.00 | 0.00 | 65 | 1012.0 |
| 20260503080826 | 41 | 166 | 0.0 | 0.0 | 0.00 | 0.00 | 0.00 | 65 | 1011.9 |
| 20260503080323 | 41 | 160 | 0.0 | 1.0 | 0.00 | 0.00 | 0.00 | 65 | 1012.1 |
| 20260503072759 | 41 | 187 | 2.0 | 2.0 | 0.00 | 0.00 | 0.00 | 61 | 1012.3 |
| 20260503072256 | 41 | 162 | 0.0 | 1.0 | 0.00 | 0.00 | 0.00 | 60 | 1012.4 |
| 20260503071752 | 42 | 137 | 2.0 | 3.0 | 0.00 | 0.00 | 0.00 | 59 | 1012.2 |
| 20260503071250 | 42 | 140 | 0.0 | 1.0 | 0.00 | 0.00 | 0.00 | 58 | 1012.2 |
| 20260503070746 | 42 | 125 | 0.0 | 1.0 | 0.00 | 0.00 | 0.00 | 58 | 1012.4 |
| 20260503070244 | 42 | 195 | 0.0 | 0.0 | 0.00 | 0.00 | 0.00 | 57 | 1012.2 |
| 20260503060203 | 39 | 129 | 0.0 | 0.0 | 0.00 | 0.00 | 0.00 | 62 | 1013.1 |
| 20260503054650 | 39 | 135 | 0.0 | 0.0 | 0.00 | 0.00 | 0.00 | 66 | 1013.2 |
| 20260503054147 | 39 | 130 | 0.0 | 0.0 | 0.00 | 0.00 | 0.00 | 66 | 1013.7 |
| 20260503053645 | 39 | 131 | 0.0 | 0.0 | 0.00 | 0.00 | 0.00 | 65 | 1013.6 |
| 20260503053144 | 39 | 131 | 0.0 | 0.0 | 0.00 | 0.00 | 0.00 | 65 | 1013.7 |
| 20260503052640 | 39 | 127 | 0.0 | 0.0 | 0.00 | 0.00 | 0.00 | 65 | 1013.6 |
| 20260503052136 | 39 | 137 | 0.0 | 0.0 | 0.00 | 0.00 | 0.00 | 64 | 1013.7 |
| 20260503051631 | 40 | 127 | 0.0 | 0.0 | 0.00 | 0.00 | 0.00 | 61 | 1013.6 |
| 20260503051130 | 40 | 127 | 0.0 | 0.0 | 0.00 | 0.00 | 0.00 | 61 | 1013.7 |
| 20260503050626 | 40 | 125 | 0.0 | 0.0 | 0.00 | 0.00 | 0.00 | 61 | 1013.8 |
| 20260503050122 | 39 | 133 | 0.0 | 0.0 | 0.00 | 0.00 | 0.00 | 63 | 1013.7 |
| 20260503045620 | 39 | 133 | 0.0 | 0.0 | 0.00 | 0.00 | 0.00 | 64 | 1014.0 |
| 20260503045117 | 39 | 136 | 0.0 | 0.0 | 0.00 | 0.00 | 0.00 | 63 | 1014.0 |
| 20260503044614 | 39 | 143 | 0.0 | 0.0 | 0.00 | 0.00 | 0.00 | 63 | 1013.8 |
| 20260503044111 | 39 | 137 | 0.0 | 0.0 | 0.00 | 0.00 | 0.00 | 63 | 1014.0 |
| 20260503043607 | 39 | 133 | 0.0 | 0.0 | 0.00 | 0.00 | 0.00 | 64 | 1014.1 |
| 20260503043104 | 39 | 135 | 0.0 | 0.0 | 0.00 | 0.00 | 0.00 | 65 | 1013.9 |
| 20260503042601 | 39 | 135 | 0.0 | 0.0 | 0.00 | 0.00 | 0.00 | 65 | 1014.0 |
| 20260503042057 | 39 | 136 | 0.0 | 0.0 | 0.00 | 0.00 | 0.00 | 65 | 1014.1 |
| 20260503041554 | 39 | 135 | 0.0 | 0.0 | 0.00 | 0.00 | 0.00 | 65 | 1014.2 |
| 20260503041052 | 40 | 132 | 0.0 | 0.0 | 0.00 | 0.00 | 0.00 | 64 | 1014.1 |
| 20260503040549 | 40 | 138 | 0.0 | 0.0 | 0.00 | 0.00 | 0.00 | 63 | 1014.1 |
| 20260503040046 | 40 | 132 | 0.0 | 0.0 | 0.00 | 0.00 | 0.00 | 63 | 1014.3 |
| 20260503035543 | 40 | 132 | 0.0 | 0.0 | 0.00 | 0.00 | 0.00 | 63 | 1014.4 |
| 20260503035040 | 40 | 138 | 0.0 | 0.0 | 0.00 | 0.00 | 0.00 | 64 | 1014.5 |
| 20260503034537 | 39 | 153 | 1.0 | 1.0 | 0.00 | 0.00 | 0.00 | 64 | 1014.4 |
| 20260503034034 | 39 | 151 | 0.0 | 0.0 | 0.00 | 0.00 | 0.00 | 65 | 1014.4 |
| 20260503033532 | 39 | 137 | 0.0 | 0.0 | 0.00 | 0.00 | 0.00 | 65 | 1014.6 |
| 20260503033029 | 39 | 153 | 0.0 | 0.0 | 0.00 | 0.00 | 0.00 | 65 | 1014.6 |
| 20260503032528 | 39 | 135 | 0.0 | 0.0 | 0.00 | 0.00 | 0.00 | 65 | 1014.8 |
| 20260503032025 | 39 | 134 | 0.0 | 0.0 | 0.00 | 0.00 | 0.00 | 65 | 1014.7 |
| 20260503031523 | 40 | 146 | 0.0 | 0.0 | 0.00 | 0.00 | 0.00 | 65 | 1014.6 |
| 20260503031020 | 39 | 133 | 0.0 | 0.0 | 0.00 | 0.00 | 0.00 | 65 | 1014.7 |
| 20260503030516 | 39 | 135 | 0.0 | 0.0 | 0.00 | 0.00 | 0.00 | 65 | 1014.8 |
| 20260503030013 | 40 | 134 | 0.0 | 0.0 | 0.00 | 0.00 | 0.00 | 64 | 1014.8 |
| 20260503025509 | 40 | 145 | 0.0 | 0.0 | 0.00 | 0.00 | 0.00 | 64 | 1014.8 |
| 20260503025008 | 40 | 131 | 0.0 | 0.0 | 0.00 | 0.00 | 0.00 | 64 | 1014.7 |
| 20260503024504 | 40 | 132 | 0.0 | 0.0 | 0.00 | 0.00 | 0.00 | 63 | 1015.0 |
| 20260503024001 | 40 | 131 | 0.0 | 0.0 | 0.00 | 0.00 | 0.00 | 63 | 1014.8 |
| 20260503023457 | 40 | 131 | 0.0 | 0.0 | 0.00 | 0.00 | 0.00 | 63 | 1015.0 |
| 20260503022955 | 41 | 131 | 0.0 | 0.0 | 0.00 | 0.00 | 0.00 | 62 | 1015.0 |
| 20260503022450 | 41 | 137 | 0.0 | 0.0 | 0.00 | 0.00 | 0.00 | 61 | 1014.9 |
| 20260503021945 | 41 | 131 | 0.0 | 0.0 | 0.00 | 0.00 | 0.00 | 61 | 1014.9 |
| 20260503021442 | 41 | 131 | 0.0 | 0.0 | 0.00 | 0.00 | 0.00 | 61 | 1014.8 |
| 20260503020940 | 41 | 136 | 0.0 | 0.0 | 0.00 | 0.00 | 0.00 | 60 | 1014.7 |
| 20260503020437 | 41 | 127 | 0.0 | 0.0 | 0.00 | 0.00 | 0.00 | 60 | 1015.1 |
| 20260503015933 | 42 | 128 | 0.0 | 0.0 | 0.00 | 0.00 | 0.00 | 59 | 1014.7 |
| 20260503015430 | 42 | 143 | 0.0 | 0.0 | 0.00 | 0.00 | 0.00 | 58 | 1014.9 |
| 20260503014926 | 42 | 158 | 0.0 | 0.0 | 0.00 | 0.00 | 0.00 | 57 | 1014.9 |
| 20260503014424 | 42 | 137 | 0.0 | 0.0 | 0.00 | 0.00 | 0.00 | 57 | 1014.9 |
| 20260503013922 | 42 | 133 | 0.0 | 0.0 | 0.00 | 0.00 | 0.00 | 56 | 1014.8 |
| 20260503013418 | 43 | 135 | 0.0 | 0.0 | 0.00 | 0.00 | 0.00 | 56 | 1014.8 |
| 20260503012916 | 43 | 128 | 0.0 | 0.0 | 0.00 | 0.00 | 0.00 | 54 | 1014.6 |
| 20260503012414 | 44 | 161 | 0.0 | 0.0 | 0.00 | 0.00 | 0.00 | 52 | 1014.8 |
| 20260503011909 | 44 | 156 | 0.0 | 0.0 | 0.00 | 0.00 | 0.00 | 52 | 1015.0 |
| 20260503011407 | 44 | 161 | 1.0 | 1.0 | 0.00 | 0.00 | 0.00 | 50 | 1014.7 |
| 20260503010903 | 44 | 146 | 1.0 | 1.0 | 0.00 | 0.00 | 0.00 | 50 | 1014.7 |
| 20260503010400 | 45 | 154 | 0.0 | 0.0 | 0.00 | 0.00 | 0.00 | 50 | 1014.6 |
| 20260503005857 | 45 | 146 | 0.0 | 0.0 | 0.00 | 0.00 | 0.00 | 50 | 1014.8 |
| 20260503005355 | 45 | 236 | 1.0 | 1.0 | 0.00 | 0.00 | 0.00 | 49 | 1014.7 |
| 20260503004850 | 46 | 226 | 2.0 | 2.0 | 0.00 | 0.00 | 0.00 | 48 | 1014.8 |
| 20260503004348 | 46 | 150 | 1.0 | 2.0 | 0.00 | 0.00 | 0.00 | 47 | 1014.8 |
| 20260503003846 | 46 | 225 | 1.0 | 1.0 | 0.00 | 0.00 | 0.00 | 46 | 1014.6 |
| 20260503003342 | 46 | 151 | 0.0 | 1.0 | 0.00 | 0.00 | 0.00 | 46 | 1014.7 |
| 20260503002839 | 47 | 163 | 1.0 | 1.0 | 0.00 | 0.00 | 0.00 | 46 | 1014.5 |
| 20260503002337 | 47 | 206 | 1.0 | 2.0 | 0.00 | 0.00 | 0.00 | 45 | 1014.7 |
| 20260503001833 | 47 | 229 | 0.0 | 2.0 | 0.00 | 0.00 | 0.00 | 46 | 1014.6 |
| 20260503001329 | 47 | 251 | 2.0 | 3.0 | 0.00 | 0.00 | 0.00 | 44 | 1014.5 |
| 20260503000827 | 48 | 156 | 1.0 | 1.0 | 0.00 | 0.00 | 0.00 | 44 | 1014.5 |
| 20260503000325 | 48 | 249 | 2.0 | 2.0 | 0.00 | 0.00 | 0.00 | 42 | 1014.6 |
| 20260502235821 | 49 | 266 | 2.0 | 3.0 | 0.00 | 0.00 | 0.00 | 41 | 1014.6 |
| 20260502235318 | 49 | 154 | 0.0 | 1.0 | 0.00 | 0.00 | 0.00 | 41 | 1014.8 |
| 20260502234815 | 49 | 136 | 0.0 | 0.0 | 0.00 | 0.00 | 0.00 | 41 | 1014.8 |
| 20260502234312 | 49 | 251 | 2.0 | 2.0 | 0.00 | 0.00 | 0.00 | 40 | 1014.5 |
| 20260502233808 | 49 | 127 | 1.0 | 1.0 | 0.00 | 0.00 | 0.00 | 39 | 1014.8 |
| 20260502233305 | 49 | 139 | 1.0 | 1.0 | 0.00 | 0.00 | 0.00 | 39 | 1014.8 |
| 20260502232801 | 49 | 181 | 1.0 | 1.0 | 0.00 | 0.00 | 0.00 | 38 | 1014.6 |
| 20260502232258 | 49 | 145 | 0.0 | 0.0 | 0.00 | 0.00 | 0.00 | 39 | 1014.7 |
| 20260502231754 | 50 | 169 | 0.0 | 0.0 | 0.00 | 0.00 | 0.00 | 38 | 1014.9 |
| 20260502231252 | 50 | 117 | 0.0 | 1.0 | 0.00 | 0.00 | 0.00 | 38 | 1014.7 |
| 20260502230751 | 50 | 223 | 1.0 | 2.0 | 0.00 | 0.00 | 0.00 | 36 | 1015.0 |
| 20260502230248 | 50 | 225 | 2.0 | 3.0 | 0.00 | 0.00 | 0.00 | 36 | 1014.9 |
| 20260502225745 | 51 | 254 | 2.0 | 2.0 | 0.00 | 0.00 | 0.00 | 37 | 1014.9 |
| 20260502225242 | 50 | 247 | 1.0 | 2.0 | 0.00 | 0.00 | 0.00 | 36 | 1014.9 |
| 20260502224738 | 51 | 330 | 1.0 | 2.0 | 0.00 | 0.00 | 0.00 | 37 | 1014.9 |
| 20260502224235 | 52 | 267 | 1.0 | 1.0 | 0.00 | 0.00 | 0.00 | 35 | 1014.9 |
| 20260502223732 | 53 | 137 | 0.0 | 1.0 | 0.00 | 0.00 | 0.00 | 37 | 1015.0 |
| 20260502223230 | 52 | 252 | 1.0 | 1.0 | 0.00 | 0.00 | 0.00 | 36 | 1014.9 |
| 20260502222727 | 52 | 261 | 3.0 | 5.0 | 0.00 | 0.00 | 0.00 | 35 | 1014.8 |
| 20260502222224 | 52 | 200 | 3.0 | 5.0 | 0.00 | 0.00 | 0.00 | 35 | 1015.0 |
| 20260502221720 | 52 | 215 | 2.0 | 3.0 | 0.00 | 0.00 | 0.00 | 36 | 1014.9 |